Time,TemperatureF,DewpointF,PressureIn,WindDirection,WindDirectionDegrees,WindSpeedMPH,WindSpeedGustMPH,Humidity,HourlyPrecipIn,Conditions,Clouds,dailyrainin,SoftwareType,DateUTC
2013-03-15 00:03:00,33.0,25.0,-100.00,WSW,245,7.0,9.0,71,0.00,,,-99.99,,2013-03-15 04:03:00,
2013-03-15 00:12:00,33.0,25.0,-100.00,WSW,240,7.0,9.0,72,0.00,,,-99.99,,2013-03-15 04:12:00,
2013-03-15 00:23:00,33.0,25.0,-100.00,WSW,240,7.0,10.0,72,0.00,,,-99.99,,2013-03-15 04:23:00,
2013-03-15 00:33:00,33.0,25.0,-100.00,SW,235,6.0,9.0,71,0.00,,,-99.99,,2013-03-15 04:33:00,
2013-03-15 00:43:00,33.0,25.0,-100.00,WSW,245,7.0,10.0,72,0.00,,,-99.99,,2013-03-15 04:43:00,
2013-03-15 00:52:00,33.0,25.0,-100.00,WSW,255,6.0,9.0,71,0.00,,,-99.99,,2013-03-15 04:52:00,
2013-03-15 01:02:00,33.0,25.0,-100.00,WSW,255,6.0,9.0,71,0.00,,,-99.99,,2013-03-15 05:02:00,
2013-03-15 01:12:00,33.0,25.0,-100.00,WSW,250,6.0,7.0,72,0.00,,,-99.99,,2013-03-15 05:12:00,
2013-03-15 01:22:00,33.0,25.0,-100.00,West,260,7.0,9.0,72,0.00,,,-99.99,,2013-03-15 05:22:00,
2013-03-15 01:32:00,33.0,25.0,-100.00,WSW,255,7.0,9.0,72,0.00,,,-99.99,,2013-03-15 05:32:00,
2013-03-15 01:42:00,33.0,25.0,-100.00,West,265,6.0,9.0,72,0.00,,,-99.99,,2013-03-15 05:42:00,
2013-03-15 01:52:00,33.0,25.0,-100.00,WSW,255,7.0,8.0,72,0.00,,,-99.99,,2013-03-15 05:52:00,
2013-03-15 02:02:00,33.0,26.0,-100.00,WSW,245,6.0,9.0,73,0.00,,,-99.99,,2013-03-15 06:02:00,
2013-03-15 02:12:00,33.0,26.0,-100.00,WSW,250,7.0,9.0,74,0.00,,,-99.99,,2013-03-15 06:12:00,
2013-03-15 02:22:00,33.0,26.0,-100.00,SW,235,7.0,10.0,75,0.00,,,-99.99,,2013-03-15 06:22:00,
2013-03-15 02:32:00,33.0,26.0,-100.00,SW,235,7.0,9.0,76,0.00,,,-99.99,,2013-03-15 06:32:00,
2013-03-15 02:42:00,33.0,27.0,-100.00,WSW,240,6.0,8.0,77,0.00,,,-99.99,,2013-03-15 06:42:00,
2013-03-15 02:52:00,33.0,27.0,-100.00,WSW,240,7.0,9.0,78,0.00,,,-99.99,,2013-03-15 06:52:00,
2013-03-15 03:02:00,33.0,27.0,-100.00,WSW,240,6.0,11.0,79,0.00,,,-99.99,,2013-03-15 07:02:00,
2013-03-15 03:12:00,33.0,27.0,-100.00,WSW,240,6.0,11.0,79,0.00,,,-99.99,,2013-03-15 07:12:00,
2013-03-15 03:22:00,33.0,27.0,-100.00,WSW,250,9.0,10.0,80,0.00,,,-99.99,,2013-03-15 07:22:00,
2013-03-15 03:32:00,33.0,27.0,-100.00,WSW,250,7.0,11.0,81,0.00,,,-99.99,,2013-03-15 07:32:00,
2013-03-15 03:42:00,32.0,28.0,-100.00,WSW,255,8.0,11.0,82,0.00,,,-99.99,,2013-03-15 07:42:00,
2013-03-15 03:52:00,32.0,28.0,-100.00,WSW,240,8.0,11.0,84,0.00,,,-99.99,,2013-03-15 07:52:00,
2013-03-15 04:02:00,32.0,28.0,-100.00,WSW,245,7.0,9.0,86,0.00,,,-99.99,,2013-03-15 08:02:00,
2013-03-15 04:12:00,32.0,29.0,-100.00,SW,235,6.0,9.0,88,0.00,,,-99.99,,2013-03-15 08:12:00,
2013-03-15 04:23:00,32.0,29.0,-100.00,SW,235,7.0,9.0,90,0.00,,,-99.99,,2013-03-15 08:23:00,
2013-03-15 04:33:00,32.0,30.0,-100.00,WSW,240,7.0,9.0,91,0.00,,,-99.99,,2013-03-15 08:33:00,
2013-03-15 04:42:00,32.0,30.0,-100.00,WSW,250,9.0,14.0,92,0.00,,,-99.99,,2013-03-15 08:42:00,
2013-03-15 04:52:00,33.0,31.0,-100.00,WSW,255,10.0,12.0,93,0.00,,,-99.99,,2013-03-15 08:52:00,
2013-03-15 05:02:00,33.0,31.0,-100.00,WSW,250,11.0,13.0,94,0.00,,,-99.99,,2013-03-15 09:02:00,
2013-03-15 05:12:00,33.0,31.0,-100.00,WSW,255,8.0,15.0,95,0.00,,,-99.99,,2013-03-15 09:12:00,
2013-03-15 05:22:00,33.0,31.0,-100.00,WSW,255,8.0,15.0,95,0.00,,,-99.99,,2013-03-15 09:22:00,
2013-03-15 05:33:00,33.0,32.0,-100.00,WSW,255,10.0,16.0,96,0.00,,,-99.99,,2013-03-15 09:33:00,
2013-03-15 05:43:00,33.0,32.0,-100.00,West,260,9.0,15.0,96,0.00,,,-99.99,,2013-03-15 09:43:00,
2013-03-15 05:52:00,33.0,32.0,-100.00,WSW,250,9.0,12.0,96,0.00,,,-99.99,,2013-03-15 09:52:00,
2013-03-15 06:03:00,33.0,32.0,-100.00,WSW,250,6.0,11.0,96,0.00,,,-99.99,,2013-03-15 10:03:00,
2013-03-15 06:12:00,32.0,31.0,-100.00,WSW,250,7.0,10.0,96,0.00,,,-99.99,,2013-03-15 10:12:00,
2013-03-15 06:23:00,32.0,32.0,-100.00,WSW,240,7.0,11.0,97,0.00,,,-99.99,,2013-03-15 10:23:00,
2013-03-15 06:33:00,32.0,31.0,-100.00,SW,235,6.0,9.0,97,0.00,,,-99.99,,2013-03-15 10:33:00,
2013-03-15 06:42:00,32.0,31.0,-100.00,SW,230,7.0,9.0,97,0.00,,,-99.99,,2013-03-15 10:42:00,
2013-03-15 06:52:00,32.0,31.0,-100.00,SW,235,8.0,10.0,98,0.00,,,-99.99,,2013-03-15 10:52:00,
2013-03-15 07:03:00,32.0,31.0,-100.00,SW,230,9.0,11.0,98,0.00,,,-99.99,,2013-03-15 11:03:00,
2013-03-15 07:12:00,32.0,31.0,-100.00,SW,230,10.0,12.0,98,0.00,,,-99.99,,2013-03-15 11:12:00,
2013-03-15 07:22:00,32.0,31.0,-100.00,SW,230,10.0,12.0,98,0.00,,,-99.99,,2013-03-15 11:22:00,
2013-03-15 07:32:00,31.0,31.0,-100.00,SW,220,7.0,10.0,98,0.00,,,-99.99,,2013-03-15 11:32:00,
2013-03-15 07:42:00,31.0,31.0,-100.00,SW,230,7.0,10.0,98,0.00,,,-99.99,,2013-03-15 11:42:00,
2013-03-15 07:52:00,31.0,31.0,-100.00,SW,235,9.0,12.0,98,0.00,,,-99.99,,2013-03-15 11:52:00,
2013-03-15 08:02:00,31.0,31.0,-100.00,SW,235,9.0,12.0,99,0.00,,,-99.99,,2013-03-15 12:02:00,
2013-03-15 08:12:00,31.0,31.0,-100.00,WSW,240,9.0,12.0,99,0.00,,,-99.99,,2013-03-15 12:12:00,
2013-03-15 08:23:00,31.0,31.0,-100.00,WSW,245,7.0,9.0,99,0.00,,,-99.99,,2013-03-15 12:23:00,
2013-03-15 08:32:00,31.0,31.0,-100.00,WSW,245,7.0,12.0,99,0.00,,,-99.99,,2013-03-15 12:32:00,
2013-03-15 08:42:00,31.0,31.0,-100.00,SW,235,7.0,11.0,99,0.00,,,-99.99,,2013-03-15 12:42:00,
2013-03-15 08:52:00,31.0,31.0,-100.00,WSW,245,9.0,12.0,99,0.00,,,-99.99,,2013-03-15 12:52:00,
2013-03-15 09:02:00,32.0,32.0,-100.00,WSW,250,9.0,11.0,99,0.00,,,-99.99,,2013-03-15 13:02:00,
2013-03-15 09:12:00,32.0,32.0,-100.00,WSW,245,9.0,14.0,99,0.00,,,-99.99,,2013-03-15 13:12:00,
2013-03-15 09:22:00,32.0,32.0,-100.00,WSW,245,7.0,12.0,99,0.00,,,-99.99,,2013-03-15 13:22:00,
2013-03-15 09:32:00,32.0,32.0,-100.00,WSW,245,7.0,12.0,99,0.00,,,-99.99,,2013-03-15 13:32:00,
2013-03-15 09:42:00,32.0,32.0,-100.00,WSW,245,9.0,13.0,99,0.00,,,-99.99,,2013-03-15 13:42:00,
2013-03-15 09:52:00,33.0,32.0,-100.00,WSW,250,9.0,12.0,99,0.00,,,-99.99,,2013-03-15 13:52:00,
2013-03-15 10:02:00,33.0,33.0,-100.00,SW,230,9.0,13.0,98,0.00,,,-99.99,,2013-03-15 14:02:00,
2013-03-15 10:12:00,33.0,33.0,-100.00,SW,230,9.0,13.0,98,0.00,,,-99.99,,2013-03-15 14:12:00,
2013-03-15 10:22:00,33.0,33.0,-100.00,WSW,240,10.0,13.0,98,0.00,,,-99.99,,2013-03-15 14:22:00,
2013-03-15 10:32:00,33.0,33.0,-100.00,WSW,240,10.0,13.0,98,0.00,,,-99.99,,2013-03-15 14:32:00,
2013-03-15 10:42:00,34.0,33.0,-100.00,WSW,245,10.0,14.0,96,0.00,,,-99.99,,2013-03-15 14:42:00,
2013-03-15 10:53:00,35.0,33.0,-100.00,WSW,240,11.0,15.0,94,0.00,,,-99.99,,2013-03-15 14:53:00,
2013-03-15 11:02:00,35.0,33.0,-100.00,WSW,240,10.0,14.0,92,0.00,,,-99.99,,2013-03-15 15:02:00,
2013-03-15 11:13:00,36.0,33.0,-100.00,WSW,255,9.0,15.0,90,0.00,,,-99.99,,2013-03-15 15:13:00,
2013-03-15 11:23:00,36.0,33.0,-100.00,WSW,250,11.0,14.0,88,0.00,,,-99.99,,2013-03-15 15:23:00,
2013-03-15 11:33:00,37.0,33.0,-100.00,West,275,7.0,12.0,86,0.00,,,-99.99,,2013-03-15 15:33:00,
2013-03-15 11:42:00,37.0,33.0,-100.00,West,265,12.0,14.0,86,0.00,,,-99.99,,2013-03-15 15:42:00,
2013-03-15 11:52:00,37.0,33.0,-100.00,West,260,10.0,14.0,84,0.00,,,-99.99,,2013-03-15 15:52:00,
2013-03-15 12:03:00,37.0,33.0,-100.00,West,265,9.0,14.0,84,0.00,,,-99.99,,2013-03-15 16:03:00,
2013-03-15 12:12:00,37.0,33.0,-100.00,WSW,255,10.0,14.0,83,0.00,,,-99.99,,2013-03-15 16:12:00,
2013-03-15 12:23:00,37.0,33.0,-100.00,West,260,9.0,12.0,83,0.00,,,-99.99,,2013-03-15 16:23:00,
2013-03-15 12:32:00,38.0,33.0,-100.00,WSW,250,7.0,11.0,82,0.00,,,-99.99,,2013-03-15 16:32:00,
2013-03-15 12:42:00,39.0,34.0,-100.00,WSW,255,7.0,14.0,82,0.00,,,-99.99,,2013-03-15 16:42:00,
2013-03-15 12:52:00,39.0,33.0,-100.00,WSW,245,9.0,11.0,81,0.00,,,-99.99,,2013-03-15 16:52:00,
2013-03-15 13:02:00,40.0,33.0,-100.00,WSW,240,7.0,12.0,78,0.00,,,-99.99,,2013-03-15 17:02:00,
2013-03-15 13:12:00,40.0,34.0,-100.00,WSW,240,9.0,12.0,78,0.00,,,-99.99,,2013-03-15 17:12:00,
2013-03-15 13:22:00,40.0,34.0,-100.00,West,270,8.0,12.0,76,0.00,,,-99.99,,2013-03-15 17:22:00,
2013-03-15 13:32:00,40.0,34.0,-100.00,West,270,8.0,12.0,76,0.00,,,-99.99,,2013-03-15 17:32:00,
2013-03-15 13:42:00,41.0,34.0,-100.00,SW,235,9.0,12.0,76,0.00,,,-99.99,,2013-03-15 17:42:00,
2013-03-15 13:52:00,41.0,34.0,-100.00,SW,225,9.0,12.0,76,0.00,,,-99.99,,2013-03-15 17:52:00,
2013-03-15 14:03:00,41.0,34.0,-100.00,SW,225,9.0,12.0,76,0.00,,,-99.99,,2013-03-15 18:03:00,
2013-03-15 14:12:00,42.0,35.0,-100.00,West,265,6.0,9.0,74,0.00,,,-99.99,,2013-03-15 18:12:00,
2013-03-15 14:22:00,43.0,34.0,-100.00,West,275,7.0,10.0,71,0.00,,,-99.99,,2013-03-15 18:22:00,
2013-03-15 14:32:00,43.0,34.0,-100.00,WSW,255,10.0,12.0,71,0.00,,,-99.99,,2013-03-15 18:32:00,
2013-03-15 14:42:00,42.0,35.0,-100.00,SW,230,8.0,11.0,72,0.00,,,-99.99,,2013-03-15 18:42:00,
2013-03-15 14:52:00,44.0,35.0,-100.00,West,270,7.0,11.0,72,0.00,,,-99.99,,2013-03-15 18:52:00,
2013-03-15 15:02:00,44.0,35.0,-100.00,West,270,8.0,9.0,69,0.00,,,-99.99,,2013-03-15 19:02:00,
2013-03-15 15:12:00,44.0,34.0,-100.00,SW,225,7.0,12.0,67,0.00,,,-99.99,,2013-03-15 19:12:00,
2013-03-15 15:22:00,45.0,35.0,-100.00,WNW,290,7.0,9.0,68,0.00,,,-99.99,,2013-03-15 19:22:00,
2013-03-15 15:32:00,45.0,35.0,-100.00,WNW,290,7.0,9.0,68,0.00,,,-99.99,,2013-03-15 19:32:00,
2013-03-15 15:42:00,46.0,36.0,-100.00,WNW,290,9.0,12.0,69,0.00,,,-99.99,,2013-03-15 19:42:00,
2013-03-15 15:52:00,46.0,36.0,-100.00,West,280,10.0,13.0,68,0.00,,,-99.99,,2013-03-15 19:52:00,
2013-03-15 16:02:00,45.0,36.0,-100.00,West,260,7.0,11.0,68,0.00,,,-99.99,,2013-03-15 20:02:00,
2013-03-15 16:12:00,45.0,35.0,-100.00,WSW,255,9.0,11.0,68,0.00,,,-99.99,,2013-03-15 20:12:00,
2013-03-15 16:22:00,45.0,35.0,-100.00,WSW,255,9.0,11.0,68,0.00,,,-99.99,,2013-03-15 20:22:00,
2013-03-15 16:32:00,45.0,36.0,-100.00,SW,235,6.0,11.0,71,0.00,,,-99.99,,2013-03-15 20:32:00,
2013-03-15 16:42:00,45.0,37.0,-100.00,WSW,250,9.0,11.0,72,0.00,,,-99.99,,2013-03-15 20:42:00,
2013-03-15 16:52:00,45.0,37.0,-100.00,SW,230,9.0,11.0,72,0.00,,,-99.99,,2013-03-15 20:52:00,
2013-03-15 17:02:00,45.0,37.0,-100.00,WSW,240,8.0,9.0,72,0.00,,,-99.99,,2013-03-15 21:02:00,
2013-03-15 17:12:00,45.0,37.0,-100.00,WSW,240,8.0,9.0,72,0.00,,,-99.99,,2013-03-15 21:12:00,
2013-03-15 17:22:00,46.0,37.0,-100.00,WSW,255,7.0,9.0,70,0.00,,,-99.99,,2013-03-15 21:22:00,
2013-03-15 17:33:00,46.0,36.0,-100.00,WSW,245,9.0,11.0,69,0.00,,,-99.99,,2013-03-15 21:33:00,
2013-03-15 17:43:00,46.0,36.0,-100.00,West,260,10.0,13.0,68,0.00,,,-99.99,,2013-03-15 21:43:00,
2013-03-15 17:53:00,46.0,36.0,-100.00,West,275,7.0,12.0,68,0.00,,,-99.99,,2013-03-15 21:53:00,
2013-03-15 18:04:00,46.0,36.0,-100.00,West,265,7.0,11.0,68,0.00,,,-99.99,,2013-03-15 22:04:00,
2013-03-15 18:13:00,46.0,36.0,-100.00,WSW,240,7.0,11.0,68,0.00,,,-99.99,,2013-03-15 22:13:00,
2013-03-15 18:22:00,46.0,36.0,-100.00,WSW,250,7.0,9.0,69,0.00,,,-99.99,,2013-03-15 22:22:00,
2013-03-15 18:32:00,46.0,36.0,-100.00,WSW,245,7.0,9.0,69,0.00,,,-99.99,,2013-03-15 22:32:00,
2013-03-15 18:42:00,46.0,37.0,-100.00,WSW,255,6.0,9.0,70,0.00,,,-99.99,,2013-03-15 22:42:00,
2013-03-15 18:52:00,46.0,36.0,-100.00,WSW,240,6.0,9.0,70,0.00,,,-99.99,,2013-03-15 22:52:00,
2013-03-15 19:03:00,46.0,36.0,-100.00,West,260,6.0,8.0,69,0.00,,,-99.99,,2013-03-15 23:03:00,
2013-03-15 19:12:00,46.0,37.0,-100.00,WSW,240,6.0,6.0,70,0.00,,,-99.99,,2013-03-15 23:12:00,
2013-03-15 19:22:00,45.0,37.0,-100.00,WSW,250,4.0,7.0,71,0.55,,,-99.99,,2013-03-15 23:22:00,
2013-03-15 19:32:00,45.0,37.0,-100.00,WSW,240,4.0,6.0,74,1.69,,,-99.99,,2013-03-15 23:32:00,
2013-03-15 19:42:00,44.0,38.0,-100.00,WSW,245,5.0,6.0,79,1.69,,,-99.99,,2013-03-15 23:42:00,
2013-03-15 19:52:00,44.0,39.0,-100.00,WSW,250,4.0,6.0,83,1.10,,,-99.99,,2013-03-15 23:52:00,
2013-03-15 20:03:00,44.0,40.0,-100.00,SW,225,3.0,6.0,85,1.69,,,-99.99,,2013-03-16 00:03:00,
2013-03-15 20:12:00,43.0,40.0,-100.00,SW,235,4.0,6.0,88,1.10,,,-99.99,,2013-03-16 00:12:00,
2013-03-15 20:22:00,43.0,40.0,-100.00,SW,235,6.0,6.0,90,0.00,,,-99.99,,2013-03-16 00:22:00,
2013-03-15 20:32:00,43.0,40.0,-100.00,SW,235,6.0,6.0,91,0.00,,,-99.99,,2013-03-16 00:32:00,
2013-03-15 20:42:00,42.0,41.0,-100.00,SW,235,5.0,6.0,93,0.00,,,-99.99,,2013-03-16 00:42:00,
2013-03-15 20:52:00,42.0,41.0,-100.00,SW,235,5.0,6.0,93,0.00,,,-99.99,,2013-03-16 00:52:00,
2013-03-15 21:03:00,42.0,41.0,-100.00,WSW,245,2.0,6.0,94,0.00,,,-99.99,,2013-03-16 01:03:00,
2013-03-15 21:12:00,42.0,40.0,-100.00,SW,230,2.0,2.0,94,1.69,,,-99.99,,2013-03-16 01:12:00,
2013-03-15 21:22:00,42.0,41.0,-100.00,WSW,255,1.0,2.0,95,0.00,,,-99.99,,2013-03-16 01:22:00,
2013-03-15 21:32:00,42.0,40.0,-100.00,SW,225,1.0,2.0,95,2.24,,,-99.99,,2013-03-16 01:32:00,
2013-03-15 21:42:00,42.0,40.0,-100.00,South,180,1.0,2.0,96,1.69,,,-99.99,,2013-03-16 01:42:00,
2013-03-15 21:52:00,41.0,40.0,-100.00,SW,230,2.0,4.0,96,1.10,,,-99.99,,2013-03-16 01:52:00,
2013-03-15 22:02:00,41.0,41.0,-100.00,South,190,2.0,3.0,96,1.69,,,-99.99,,2013-03-16 02:02:00,
2013-03-15 22:12:00,41.0,41.0,-100.00,South,190,2.0,3.0,96,1.69,,,-99.99,,2013-03-16 02:12:00,
2013-03-15 22:23:00,41.0,40.0,-100.00,SSW,195,0.0,2.0,96,1.69,,,-99.99,,2013-03-16 02:23:00,
2013-03-15 22:33:00,41.0,40.0,-100.00,NNE,30,0.0,1.0,97,1.10,,,-99.99,,2013-03-16 02:33:00,
2013-03-15 22:42:00,41.0,40.0,-100.00,East,85,1.0,1.0,97,1.10,,,-99.99,,2013-03-16 02:42:00,
2013-03-15 22:52:00,41.0,40.0,-100.00,East,100,1.0,1.0,97,1.69,,,-99.99,,2013-03-16 02:52:00,
2013-03-15 23:02:00,40.0,40.0,-100.00,East,85,3.0,4.0,97,0.00,,,-99.99,,2013-03-16 03:02:00,
2013-03-15 23:12:00,41.0,40.0,-100.00,ESE,115,5.0,6.0,97,0.00,,,-99.99,,2013-03-16 03:12:00,
2013-03-15 23:22:00,41.0,40.0,-100.00,East,85,2.0,4.0,98,0.00,,,-99.99,,2013-03-16 03:22:00,
2013-03-15 23:32:00,40.0,40.0,-100.00,East,80,3.0,5.0,98,0.00,,,-99.99,,2013-03-16 03:32:00,
2013-03-15 23:43:00,40.0,40.0,-100.00,East,85,3.0,4.0,98,0.00,,,-99.99,,2013-03-16 03:43:00,
2013-03-15 23:52:00,40.0,40.0,-100.00,ENE,65,4.0,6.0,98,0.00,,,-99.99,,2013-03-16 03:52:00,